| time (UTC) | temp F | wind direction | speed knots | gust knots | rain 1hr in | rain 24hr in | rain mn in | humidity % | barometer mb |
| 20260503195258 | 60 | 96 | 0.0 | 0.9 | 0.00 | 0.00 | 0.00 | 50 | 992.4 |
| 20260503194258 | 60 | 96 | 0.0 | 0.0 | 0.00 | 0.00 | 0.00 | 49 | 992.5 |
| 20260503193259 | 60 | 96 | 0.9 | 0.9 | 0.00 | 0.00 | 0.00 | 50 | 992.5 |
| 20260503192258 | 59 | 95 | 0.0 | 0.9 | 0.00 | 0.00 | 0.00 | 54 | 992.6 |
| 20260503191757 | 59 | 160 | 0.0 | 0.0 | 0.00 | 0.00 | 0.00 | 54 | 992.6 |
| 20260503191257 | 60 | 160 | 0.0 | 0.9 | 0.00 | 0.00 | 0.00 | 53 | 992.5 |
| 20260503190256 | 61 | 223 | 0.0 | 0.9 | 0.00 | 0.00 | 0.00 | 49 | 992.5 |
| 20260503185756 | 61 | 223 | 0.0 | 0.9 | 0.00 | 0.00 | 0.00 | 51 | 992.5 |
| 20260503185258 | 60 | 238 | 0.0 | 0.9 | 0.00 | 0.00 | 0.00 | 51 | 992.4 |
| 20260503184756 | 60 | 288 | 0.0 | 0.0 | 0.00 | 0.00 | 0.00 | 50 | 992.4 |
| 20260503183754 | 60 | 288 | 0.0 | 0.0 | 0.00 | 0.00 | 0.00 | 50 | 992.5 |
| 20260503183255 | 60 | 288 | 0.0 | 0.0 | 0.00 | 0.00 | 0.00 | 51 | 992.4 |
| 20260503182256 | 62 | 288 | 0.0 | 0.0 | 0.00 | 0.00 | 0.00 | 48 | 992.3 |
| 20260503181754 | 62 | 288 | 0.0 | 0.0 | 0.00 | 0.00 | 0.00 | 47 | 992.2 |
| 20260503180752 | 63 | 288 | 0.0 | 0.0 | 0.00 | 0.00 | 0.00 | 46 | 992.1 |
| 20260503180253 | 64 | 288 | 0.0 | 0.0 | 0.00 | 0.00 | 0.00 | 45 | 992.0 |
| 20260503174751 | 64 | 288 | 0.9 | 0.9 | 0.00 | 0.00 | 0.00 | 45 | 992.1 |
| 20260503174252 | 65 | 288 | 0.9 | 1.7 | 0.00 | 0.00 | 0.00 | 44 | 992.1 |
| 20260503173251 | 65 | 288 | 1.7 | 1.7 | 0.00 | 0.00 | 0.00 | 44 | 992.1 |
| 20260503172751 | 65 | 286 | 1.7 | 1.7 | 0.00 | 0.00 | 0.00 | 44 | 992.0 |
| 20260503172251 | 66 | 297 | 2.6 | 2.6 | 0.00 | 0.00 | 0.00 | 44 | 992.0 |
| 20260503171751 | 66 | 297 | 2.6 | 2.6 | 0.00 | 0.00 | 0.00 | 44 | 992.2 |
| 20260503170750 | 67 | 297 | 2.6 | 4.3 | 0.00 | 0.00 | 0.00 | 42 | 992.0 |
| 20260503150744 | 69 | 288 | 5.2 | 9.6 | 0.00 | 0.00 | 0.00 | 39 | 992.4 |
| 20260503150243 | 69 | 286 | 5.2 | 7.8 | 0.00 | 0.00 | 0.00 | 40 | 992.5 |
| 20260503140240 | 68 | 300 | 5.2 | 9.6 | 0.00 | 0.00 | 0.00 | 41 | 992.9 |
| 20260503131237 | 68 | 310 | 4.3 | 7.8 | 0.00 | 0.00 | 0.00 | 40 | 993.7 |
| 20260503130737 | 68 | 305 | 3.5 | 7.8 | 0.00 | 0.00 | 0.00 | 39 | 993.8 |
| 20260503130236 | 68 | 203 | 3.5 | 8.7 | 0.00 | 0.00 | 0.00 | 40 | 993.9 |
| 20260503110731 | 63 | 328 | 4.3 | 7.8 | 0.00 | 0.00 | 0.00 | 43 | 995.1 |
| 20260503110231 | 63 | 343 | 5.2 | 8.7 | 0.00 | 0.00 | 0.00 | 43 | 995.2 |
| 20260503080218 | 58 | 271 | 2.6 | 5.2 | 0.00 | 0.00 | 0.00 | 50 | 997.0 |
| 20260503072720 | 56 | 149 | 1.7 | 4.3 | 0.00 | 0.00 | 0.00 | 52 | 997.2 |
| 20260503072217 | 55 | 288 | 1.7 | 6.1 | 0.00 | 0.00 | 0.00 | 51 | 997.2 |
| 20260503071716 | 55 | 235 | 1.7 | 5.2 | 0.00 | 0.00 | 0.00 | 53 | 997.2 |
| 20260503071217 | 55 | 212 | 1.7 | 3.5 | 0.00 | 0.00 | 0.00 | 55 | 997.2 |
| 20260503070716 | 55 | 228 | 1.7 | 2.6 | 0.00 | 0.00 | 0.00 | 55 | 997.2 |
| 20260503070215 | 54 | 179 | 1.7 | 4.3 | 0.00 | 0.00 | 0.00 | 56 | 997.2 |
| 20260503054710 | 49 | 89 | 3.5 | 7.0 | 0.00 | 0.00 | 0.00 | 66 | 997.1 |
| 20260503053711 | 48 | 86 | 4.3 | 6.1 | 0.00 | 0.00 | 0.00 | 69 | 997.1 |
| 20260503053211 | 47 | 93 | 5.2 | 7.0 | 0.00 | 0.00 | 0.00 | 68 | 997.1 |
| 20260503052711 | 47 | 70 | 6.1 | 8.7 | 0.00 | 0.00 | 0.00 | 69 | 997.0 |
| 20260503051709 | 46 | 91 | 6.1 | 7.8 | 0.00 | 0.00 | 0.00 | 70 | 996.9 |
| 20260503051209 | 46 | 102 | 6.1 | 7.8 | 0.00 | 0.00 | 0.00 | 70 | 996.8 |
| 20260503045207 | 45 | 86 | 5.2 | 8.7 | 0.00 | 0.00 | 0.00 | 72 | 996.9 |
| 20260503044707 | 45 | 92 | 5.2 | 7.0 | 0.00 | 0.00 | 0.00 | 72 | 996.9 |
| 20260503044208 | 44 | 94 | 6.1 | 8.7 | 0.00 | 0.00 | 0.00 | 72 | 996.9 |
| 20260503043706 | 44 | 86 | 6.1 | 8.7 | 0.00 | 0.00 | 0.00 | 73 | 997.0 |
| 20260503043208 | 44 | 105 | 6.1 | 8.7 | 0.00 | 0.00 | 0.00 | 73 | 996.8 |
| 20260503042207 | 43 | 87 | 5.2 | 7.8 | 0.00 | 0.00 | 0.00 | 73 | 996.8 |
| 20260503040706 | 43 | 98 | 6.1 | 7.8 | 0.00 | 0.00 | 0.00 | 74 | 996.7 |
| 20260503040204 | 43 | 86 | 6.1 | 7.8 | 0.00 | 0.00 | 0.00 | 74 | 996.6 |
| 20260503035704 | 43 | 96 | 6.1 | 9.6 | 0.00 | 0.00 | 0.00 | 74 | 996.6 |
| 20260503034704 | 42 | 105 | 5.2 | 7.8 | 0.00 | 0.00 | 0.00 | 74 | 996.5 |
| 20260503034203 | 42 | 94 | 4.3 | 6.1 | 0.00 | 0.00 | 0.00 | 74 | 996.5 |
| 20260503033706 | 42 | 93 | 3.5 | 6.1 | 0.00 | 0.00 | 0.00 | 75 | 996.5 |
| 20260503032703 | 41 | 97 | 2.6 | 3.5 | 0.00 | 0.00 | 0.00 | 75 | 996.4 |
| 20260503031705 | 42 | 108 | 4.3 | 5.2 | 0.00 | 0.00 | 0.00 | 75 | 996.3 |
| 20260503031202 | 42 | 97 | 5.2 | 6.1 | 0.00 | 0.00 | 0.00 | 74 | 996.2 |
| 20260503030703 | 42 | 95 | 5.2 | 7.0 | 0.00 | 0.00 | 0.00 | 73 | 996.2 |
| 20260503030206 | 43 | 87 | 5.2 | 7.0 | 0.00 | 0.00 | 0.00 | 72 | 996.0 |
| 20260503025701 | 43 | 86 | 4.3 | 6.1 | 0.00 | 0.00 | 0.00 | 70 | 995.9 |
| 20260503025201 | 44 | 89 | 2.6 | 4.3 | 0.00 | 0.00 | 0.00 | 70 | 995.8 |
| 20260503024700 | 44 | 96 | 2.6 | 5.2 | 0.00 | 0.00 | 0.00 | 68 | 995.7 |
| 20260503024201 | 44 | 101 | 1.7 | 4.3 | 0.00 | 0.00 | 0.00 | 68 | 995.6 |
| 20260503023700 | 43 | 113 | 2.6 | 3.5 | 0.00 | 0.00 | 0.00 | 70 | 995.7 |
| 20260503022702 | 44 | 84 | 5.2 | 6.1 | 0.00 | 0.00 | 0.00 | 70 | 995.6 |
| 20260503022202 | 43 | 70 | 5.2 | 7.0 | 0.00 | 0.00 | 0.00 | 71 | 995.6 |
| 20260503021658 | 44 | 83 | 4.3 | 7.0 | 0.00 | 0.00 | 0.00 | 70 | 995.8 |
| 20260503020659 | 44 | 115 | 1.7 | 5.2 | 0.00 | 0.00 | 0.00 | 69 | 995.7 |
| 20260503020159 | 44 | 141 | 0.9 | 1.7 | 0.00 | 0.00 | 0.00 | 68 | 995.6 |
| 20260503015657 | 45 | 101 | 2.6 | 1.7 | 0.00 | 0.00 | 0.00 | 68 | 995.6 |
| 20260503014658 | 45 | 88 | 2.6 | 5.2 | 0.00 | 0.00 | 0.00 | 67 | 995.7 |
| 20260503014158 | 44 | 97 | 2.6 | 2.6 | 0.00 | 0.00 | 0.00 | 68 | 995.8 |
| 20260503013156 | 44 | 105 | 3.5 | 4.3 | 0.00 | 0.00 | 0.00 | 68 | 995.9 |
| 20260503012656 | 44 | 112 | 3.5 | 4.3 | 0.00 | 0.00 | 0.00 | 69 | 995.9 |
| 20260503012158 | 43 | 100 | 3.5 | 5.2 | 0.00 | 0.00 | 0.00 | 70 | 995.9 |
| 20260503011658 | 43 | 98 | 3.5 | 5.2 | 0.00 | 0.00 | 0.00 | 70 | 995.9 |
| 20260503010655 | 44 | 91 | 3.5 | 5.2 | 0.00 | 0.00 | 0.00 | 68 | 995.9 |
| 20260503010154 | 44 | 103 | 4.3 | 5.2 | 0.00 | 0.00 | 0.00 | 68 | 995.9 |
| 20260503005657 | 44 | 113 | 4.3 | 5.2 | 0.00 | 0.00 | 0.00 | 68 | 995.9 |
| 20260503005154 | 45 | 91 | 4.3 | 5.2 | 0.00 | 0.00 | 0.00 | 67 | 995.9 |
| 20260503004655 | 46 | 89 | 4.3 | 5.2 | 0.00 | 0.00 | 0.00 | 65 | 995.9 |
| 20260503004154 | 46 | 117 | 3.5 | 5.2 | 0.00 | 0.00 | 0.00 | 65 | 995.9 |
| 20260503003153 | 45 | 115 | 1.7 | 2.6 | 0.00 | 0.00 | 0.00 | 66 | 995.9 |
| 20260503002652 | 45 | 89 | 1.7 | 2.6 | 0.00 | 0.00 | 0.00 | 65 | 995.9 |
| 20260503001652 | 45 | 158 | 0.0 | 0.0 | 0.00 | 0.00 | 0.00 | 66 | 995.9 |
| 20260503001151 | 45 | 8 | 0.0 | 0.0 | 0.00 | 0.00 | 0.00 | 65 | 995.9 |
| 20260503000151 | 46 | 92 | 0.9 | 0.0 | 0.00 | 0.00 | 0.00 | 64 | 995.8 |
| 20260502235651 | 47 | 92 | 1.7 | 1.7 | 0.00 | 0.00 | 0.00 | 63 | 995.8 |
| 20260502235152 | 47 | 92 | 0.9 | 2.6 | 0.00 | 0.00 | 0.00 | 63 | 995.7 |
| 20260502233651 | 48 | 93 | 3.5 | 4.3 | 0.00 | 0.00 | 0.00 | 61 | 995.9 |
| 20260502233149 | 48 | 96 | 3.5 | 5.2 | 0.00 | 0.00 | 0.00 | 60 | 995.9 |
| 20260502232149 | 49 | 116 | 2.6 | 2.6 | 0.00 | 0.00 | 0.00 | 59 | 995.8 |
| 20260502231648 | 50 | 117 | 3.5 | 5.2 | 0.00 | 0.00 | 0.00 | 57 | 995.8 |
| 20260502230649 | 50 | 113 | 4.3 | 6.1 | 0.00 | 0.00 | 0.00 | 56 | 995.8 |
| 20260502230148 | 50 | 92 | 3.5 | 6.1 | 0.00 | 0.00 | 0.00 | 56 | 995.7 |
| 20260502225647 | 50 | 89 | 3.5 | 4.3 | 0.00 | 0.00 | 0.00 | 56 | 995.6 |
| 20260502225147 | 50 | 96 | 3.5 | 5.2 | 0.00 | 0.00 | 0.00 | 56 | 995.7 |
| 20260502224647 | 51 | 100 | 3.5 | 5.2 | 0.00 | 0.00 | 0.00 | 55 | 995.7 |
| 20260502224147 | 51 | 100 | 3.5 | 4.3 | 0.00 | 0.00 | 0.00 | 55 | 995.9 |
| 20260502223647 | 51 | 81 | 3.5 | 5.2 | 0.00 | 0.00 | 0.00 | 55 | 995.9 |
| 20260502223146 | 51 | 86 | 3.5 | 5.2 | 0.00 | 0.00 | 0.00 | 54 | 995.9 |
| 20260502222646 | 51 | 82 | 4.3 | 5.2 | 0.00 | 0.00 | 0.00 | 54 | 995.9 |
| 20260502221646 | 53 | 80 | 6.1 | 7.8 | 0.00 | 0.00 | 0.00 | 52 | 995.9 |
| 20260502221148 | 53 | 79 | 6.1 | 8.7 | 0.00 | 0.00 | 0.00 | 51 | 995.9 |
| 20260502215645 | 53 | 75 | 7.0 | 9.6 | 0.00 | 0.00 | 0.00 | 51 | 995.8 |
| 20260502215144 | 53 | 80 | 7.8 | 9.6 | 0.00 | 0.00 | 0.00 | 51 | 995.8 |
| 20260502214645 | 54 | 94 | 7.8 | 10.4 | 0.00 | 0.00 | 0.00 | 49 | 995.9 |
| 20260502214144 | 54 | 92 | 7.0 | 9.6 | 0.00 | 0.00 | 0.00 | 50 | 995.8 |
| 20260502213643 | 53 | 96 | 7.0 | 9.6 | 0.00 | 0.00 | 0.00 | 51 | 995.7 |
| 20260502213146 | 53 | 85 | 6.1 | 9.6 | 0.00 | 0.00 | 0.00 | 51 | 995.8 |
| 20260502212143 | 53 | 84 | 7.0 | 8.7 | 0.00 | 0.00 | 0.00 | 51 | 995.7 |
| 20260502211643 | 53 | 80 | 7.0 | 10.4 | 0.00 | 0.00 | 0.00 | 52 | 995.7 |
| 20260502211142 | 52 | 85 | 7.0 | 10.4 | 0.00 | 0.00 | 0.00 | 53 | 995.8 |
| 20260502210642 | 52 | 82 | 6.1 | 9.6 | 0.00 | 0.00 | 0.00 | 53 | 995.7 |
| 20260502210143 | 52 | 75 | 5.2 | 7.0 | 0.00 | 0.00 | 0.00 | 53 | 995.8 |
| 20260502205641 | 52 | 83 | 5.2 | 9.6 | 0.00 | 0.00 | 0.00 | 53 | 995.8 |
| 20260502205141 | 53 | 56 | 5.2 | 6.1 | 0.00 | 0.00 | 0.00 | 52 | 995.8 |
| 20260502204642 | 53 | 76 | 5.2 | 6.1 | 0.00 | 0.00 | 0.00 | 52 | 995.8 |
| 20260502204140 | 53 | 77 | 5.2 | 7.0 | 0.00 | 0.00 | 0.00 | 52 | 995.8 |
| 20260502203642 | 53 | 62 | 5.2 | 7.0 | 0.00 | 0.00 | 0.00 | 51 | 995.8 |
| 20260502203141 | 53 | 72 | 6.1 | 7.8 | 0.00 | 0.00 | 0.00 | 51 | 995.7 |
| 20260502202639 | 53 | 82 | 5.2 | 8.7 | 0.00 | 0.00 | 0.00 | 51 | 995.7 |
| 20260502202140 | 53 | 93 | 5.2 | 7.0 | 0.00 | 0.00 | 0.00 | 52 | 995.9 |
| 20260502201639 | 53 | 86 | 5.2 | 6.1 | 0.00 | 0.00 | 0.00 | 52 | 995.8 |
| 20260502201139 | 53 | 98 | 5.2 | 8.7 | 0.00 | 0.00 | 0.00 | 51 | 995.8 |
| 20260502200139 | 54 | 80 | 5.2 | 7.8 | 0.00 | 0.00 | 0.00 | 51 | 995.7 |
| 20260502195638 | 54 | 84 | 5.2 | 7.0 | 0.00 | 0.00 | 0.00 | 51 | 995.8 |